Regional Weather Roundup
Issued by NWS

Home | Current Version | Previous Version | Text Only | Print | Product List | Glossary Off
Versions: 1 2 3 4 5 6 7 8 9 10 11 12 13 14 15 16 17 18 19 20 21 22 23 24 25 26 27 28 29 30 31 32 33 34 35 36 37 38 39 40 41 42 43 44 45 46 47 48 49 50

510
ASUS43 KFSD 060802
RWRSD

WEATHER ROUNDUP FOR SOUTH DAKOTA
NATIONAL WEATHER SERVICE SIOUX FALLS SD
200 AM CST TUE DEC 06 2016

NOTE: "FAIR" INDICATES FEW OR NO CLOUDS BELOW 12,000 FEET WITH NO
SIGNIFICANT WEATHER AND/OR OBSTRUCTIONS TO VISIBILITY.


SDZ001>005-009-010-012>017-060900-
NORTHWEST AND NORTH CENTRAL SOUTH DAKOTA

CITY           SKY/WX    TMP DP  RH WIND       PRES   REMARKS
BUFFALO          N/A      6  -1  73 NW36G46   29.82S WCI -19
FAITH            N/A      9   5  84 W31G37    29.86R WCI -14
MOBRIDGE       MIX PCPN  13   6  74 NW31G45   29.74F WCI  -9
$$

SDZ012>016-024>037-041>051-057-063-072>074-060900-
SOUTHWEST AND SOUTH CENTRAL SOUTH DAKOTA

CITY           SKY/WX    TMP DP  RH WIND       PRES   REMARKS
RAPID CTY ARPT CLEAR     17   1  49 NW14      29.90R WCI   3
PIERRE         CLOUDY    15   7  70 NW30G44   29.88S WCI  -5
CUSTER         CLEAR      9  -3  58 NW10G22   29.77R WCI  -5
ELLSWORTH AFB  CLEAR     16   2  52 NW13      29.87S WCI   3
PHILIP         PTCLDY    14   6  70 NW21G31   29.94R WCI  -4
PINE RIDGE     CLEAR     11   5  77 W6        29.94R WCI   1
SPEARFISH      FAIR      12   1  62 W21G28    29.90F WCI  -6
WINNER         FAIR      16   8  71 W9        29.92R WCI   4
$$

SDZ004>011-016>023-039-040-060900-
NORTHEAST SOUTH DAKOTA

CITY           SKY/WX    TMP DP  RH WIND       PRES   REMARKS
ABERDEEN       CLOUDY    17   8  67 W22G35    29.70F WCI   0
WATERTOWN      FLURRIES  15   9  76 W29G38    29.69R WCI  -5
SISSETON         N/A     18  10  71 W33G46    29.58F WCI  -2
$$

SDZ017-020-022-023-036>040-048>070-060900-
SOUTHEAST SOUTH DAKOTA

CITY           SKY/WX    TMP DP  RH WIND       PRES   REMARKS
SIOUX FALLS    PTCLDY    18  11  74 W22G35    29.83R WCI   1
HURON          CLEAR     15   7  70 W25G33    29.84F WCI  -4
MITCHELL       CLEAR     17   9  70 NW22G30   29.89F WCI   0
YANKTON        PTCLDY   N/A N/A N/A W24G33    29.90R
$$

ABBREVIATIONS USED IN REMARKS
   TC - TEMPERATURE IN CELSIUS
  WCI - WIND CHILL INDEX
   HX - HEAT INDEX
  VSB - VISIBILITY





USA.gov is the U.S. government's official web portal to all federal, state and local government web resources and services.